Weather History for Crestview, FL

Change the Weather History Date:

Sunday, March 3, 2013

  Actual Average Record
Temperature  
Mean Temperature 42 °F -  
Max Temperature 52 °F - - ()
Min Temperature 31 °F - - ()
Degree Days  
Heating Degree Days 23    
Moisture  
Dew Point 22 °F    
Average Humidity 52    
Maximum Humidity 78    
Minimum Humidity 26    
Precipitation  
Precipitation 0.00 in - - ()
Sea Level Pressure  
Sea Level Pressure 30.16 in    
Wind  
Wind Speed 9 mph (NW)    
Max Wind Speed 16 mph    
Max Gust Speed 24 mph    
Visibility 10 miles    
Events      
T = Trace of Precipitation, MM = Missing Value Source: NWS Daily Summary

Daily Weather History Graph

Daily Weather History Graph

Search for Another Location

Airport:

Trip Planner

Search our weather history database for the weather conditions in past years. The results will help you decide how hot, cold, wet, or windy it might be!

Date:

Astronomy

Mar. 03, 2013 Rise Set
Actual Time 6:09 AM CST 5:46 PM CST
Civil Twilight 5:45 AM CST 6:10 PM CST
Nautical Twilight 5:17 AM CST 6:38 PM CST
Astronomical Twilight 4:49 AM CST 7:06 PM CST
Moon No Moon Rise 9:51 AM CST (3/3)
Length of Visible Light 12h 24m
Length of Day
11h 36m
Waning Gibbous, 63% of the Moon is Illuminated
Mar 3
Waning Gibbous
Mar 4
Last Quarter
Mar 11
New
Mar 19
First Quarter
Mar 27
Full

Hourly Weather History & Observations

Time (CST) Temp. Windchill Dew Point Humidity Pressure Visibility Wind Dir Wind Speed Gust Speed Precip Events Conditions
12:58 AM 37.9 °F 30.5 °F 22.3 °F 53% 30.14 in 10.0 mi NW 11.5 mph 20.7 mph N/A   Overcast
1:58 AM 37.2 °F 30.6 °F 23.7 °F 58% 30.14 in 10.0 mi NW 9.2 mph - N/A   Overcast
2:58 AM 36.1 °F 28.7 °F 24.8 °F 63% 30.13 in 10.0 mi NW 10.4 mph - N/A   Overcast
3:58 AM 36.0 °F 29.0 °F 25.0 °F 64% 30.13 in 10.0 mi NW 9.2 mph - N/A   Overcast
4:58 AM 35.6 °F 28.0 °F 24.3 °F 63% 30.13 in 10.0 mi NNW 10.4 mph - N/A   Overcast
5:58 AM 34.9 °F 28.3 °F 24.3 °F 65% 30.15 in 10.0 mi NW 8.1 mph - N/A   Overcast
6:58 AM 33.6 °F 26.2 °F 24.4 °F 69% 30.17 in 10.0 mi NW 9.2 mph - N/A   Partly Cloudy
7:58 AM 36.1 °F 27.7 °F 23.7 °F 61% 30.18 in 10.0 mi North 12.7 mph 21.9 mph N/A   Clear
8:23 AM 37.4 °F 28.9 °F 23.0 °F 56% 30.19 in 10.0 mi North 13.8 mph 20.7 mph N/A   Scattered Clouds
8:26 AM 37.4 °F 28.5 °F 23.0 °F 56% 30.19 in 10.0 mi NW 15.0 mph 18.4 mph N/A   Scattered Clouds
8:55 AM 37.4 °F 29.3 °F 22.1 °F 54% 30.20 in 10.0 mi NW 12.7 mph 20.7 mph N/A   Scattered Clouds
9:55 AM 40.5 °F 34.6 °F 20.3 °F 45% 30.20 in 10.0 mi North 9.2 mph 17.3 mph N/A   Mostly Cloudy
10:55 AM 42.4 °F 37.5 °F 21.4 °F 43% 30.18 in 10.0 mi WNW 8.1 mph 20.7 mph N/A   Partly Cloudy
11:55 AM 45.0 °F 39.7 °F 20.8 °F 38% 30.16 in 10.0 mi NNW 10.4 mph 17.3 mph N/A   Partly Cloudy
12:55 PM 47.3 °F - 19.9 °F 34% 30.14 in 10.0 mi NW 9.2 mph 18.4 mph N/A   Partly Cloudy
1:55 PM 49.3 °F - 19.0 °F 30% 30.12 in 10.0 mi NNW 10.4 mph 24.2 mph N/A   Partly Cloudy
2:58 PM 50.9 °F - 18.9 °F 28% 30.10 in 10.0 mi NNW 6.9 mph 17.3 mph N/A   Clear
3:58 PM 52.2 °F - 17.8 °F 26% 30.10 in 10.0 mi NW 16.1 mph - N/A   Clear
4:58 PM 50.5 °F - 17.2 °F 27% 30.11 in 10.0 mi NW 12.7 mph - N/A   Clear
5:58 PM 46.9 °F - 19.6 °F 34% 30.13 in 10.0 mi NW 5.8 mph - N/A   Clear
6:58 PM 41.0 °F - 24.4 °F 52% 30.15 in 10.0 mi NW 1.2 mph - N/A   Clear
7:58 PM 36.9 °F - 25.2 °F 63% 30.17 in 10.0 mi Calm Calm - N/A   Clear
8:58 PM 35.2 °F - 24.3 °F 64% 30.18 in 10.0 mi WNW 1.2 mph - N/A   Clear
9:58 PM 34.5 °F - 24.3 °F 66% 30.19 in 10.0 mi Calm Calm - N/A   Clear
10:58 PM 32.5 °F - 25.2 °F 74% 30.18 in 10.0 mi SSW 2.3 mph - N/A   Clear
11:58 PM 31.5 °F - 25.3 °F 78% 30.17 in 10.0 mi Calm Calm - N/A   Clear